Weather in Mozyr

Russia / Kaliningrad Oblast     54°26′28″N   21°28′43″E
temp.,
°C
wind,
m/s
gust,
m/s
humid.,
%
clouds,
%
prec.,
mm/h
press.,
hPa
HPBL,
m
21 april, wed
wed2123:00+7wnw22715 0.0 101137
02:00+5wnw247312 0.0 101170
05:00+4w23765 0.0 101038
08:00+8wnw24635 0.0 1010252
11:00+13w35489 0.0 10091055
14:00+14w57435 0.0 10081734
17:00+13wnw464957 0.0 10081185
20:00+8wnw377197 0.0 1008156
22 april, thu
thu2223:00+5wsw388775 0.0 1008294
02:00+5wsw5881100 0.7 1008802
05:00+3sw4119288 0.3 1008451
08:00+5sw6107944 0.3 1008880
11:00+6sw7117080 0.1 10091479
14:00+7w8126879 1.1 10091638
17:00+6w7126470 0.1 10101652
20:00+3wsw5107696 0.3 1011900
23 april, fri
fri2323:00+2wsw5118798 0.1 1011843
02:00+2w51297100 0.4 1011896
05:00+2wnw51297100 0.4 1012922
08:00+4wnw5108019 0.9 10141157
11:00+6wnw695465 0.6 10142043
14:00+7nw785099 1.3 10152111
17:00+6nw695424 0.4 10161870
20:00+2wnw410775 0.4 1018526
24 april, sat
sat2423:000w4118248 0.0 1018355
02:00+1w31076100 0.0 1018315
05:00+1wsw386996 0.0 1018232
08:00+5wnw510575 0.0 10181414
11:00+7nw713425 0.1 10182365
14:00+6nw81347100 0.3 10182548
17:00+5nw711485 0.1 10191929
20:00+2nw5117395 0.1 1020917
25 april, sun
sun2523:00+3nw5117698 0.3 10201183
02:00+2nw5117565 0.3 1020845
05:000w411815 0.0 1020322
08:00+3wnw61080100 0.1 1020944
11:00+5wnw61066100 1.5 10191813
14:00+6nw7104997 1.8 10192071
17:00+4nw7106024 0.5 10201582
20:00+1wnw49725 0.6 1020298